Weather History for KLNS - December, 2011

Change the Weather History Date:

Thursday, December 8, 2011

  Actual Average Record
Temperature  
Mean Temperature 37 °F -  
Max Temperature 42 °F 46 °F 70 °F (1980)
Min Temperature 30 °F 29 °F 8 °F (2002)
Degree Days  
Heating Degree Days 28    
Moisture  
Dew Point 27 °F    
Average Humidity 69    
Maximum Humidity 93    
Minimum Humidity 51    
Precipitation  
Precipitation 0.02 in - - ()
Sea Level Pressure  
Sea Level Pressure 30.07 in    
Wind  
Wind Speed 15 mph (WNW)    
Max Wind Speed 23 mph    
Max Gust Speed 34 mph    
Visibility 10 miles    
Events Rain    
Averages and records for this station are not official NWS values.
T = Trace of Precipitation, MM = Missing Value Source: NWS Daily Summary

Daily Weather History Graph

Daily Weather History Graph

Search for Another Location

Airport or City:

Trip Planner

Search our weather history database for the weather conditions in past years. The results will help you decide how hot, cold, wet, or windy it might be!

Date:

Astronomy

Dec. 08, 2011 Rise Set
Actual Time 7:14 AM EST 4:39 PM EST
Civil Twilight 6:44 AM EST 5:09 PM EST
Nautical Twilight 6:10 AM EST 5:43 PM EST
Astronomical Twilight 5:37 AM EST 6:16 PM EST
Moon 3:17 PM EST (12/8) 5:24 AM EST (12/8)
Length of Visible Light 10h 25m
Length of Day
9h 24m
Waxing Gibbous, 97% of the Moon is Illuminated
Dec 8
Waxing Gibbous
Dec 10
Full
Dec 17
Last Quarter
Dec 24
New
Jan 1
First Quarter

Hourly Weather History & Observations

Time (EST) Temp. Windchill Dew Point Humidity Pressure Visibility Wind Dir Wind Speed Gust Speed Precip Events Conditions
12:04 AM 35.6 °F 25.9 °F 33.8 °F 93% 29.72 in 8.0 mi NW 16.1 mph - 0.01 in Rain Rain
12:23 AM 35.6 °F 26.2 °F 33.8 °F 93% 29.73 in 10.0 mi WNW 15.0 mph - 0.02 in Rain Light Rain
12:53 AM 37.0 °F 27.4 °F 33.1 °F 86% 29.78 in 10.0 mi WNW 17.3 mph 24.2 mph 0.02 in   Overcast
1:38 AM 37.4 °F 27.2 °F 32.0 °F 81% 29.80 in 10.0 mi NW 19.6 mph 26.5 mph 0.00 in   Overcast
1:53 AM 37.0 °F 27.4 °F 32.0 °F 82% 29.81 in 10.0 mi NW 17.3 mph 23.0 mph 0.00 in   Overcast
2:27 AM 37.4 °F 26.4 °F 30.2 °F 75% 29.85 in 10.0 mi WNW 23.0 mph 28.8 mph 0.00 in   Overcast
2:53 AM 37.0 °F 26.7 °F 28.0 °F 70% 29.87 in 10.0 mi WNW 19.6 mph 32.2 mph 0.00 in   Overcast
3:00 AM 37.4 °F 27.2 °F 28.4 °F 70% 29.86 in 10.0 mi NW 19.6 mph 26.5 mph N/A   Overcast
3:53 AM 36.0 °F 26.0 °F 26.1 °F 67% 29.91 in 10.0 mi NW 17.3 mph 34.5 mph N/A   Mostly Cloudy
4:53 AM 35.1 °F 25.5 °F 23.0 °F 61% 29.96 in 10.0 mi NW 15.0 mph 25.3 mph N/A   Clear
5:53 AM 36.0 °F 26.3 °F 25.0 °F 64% 30.01 in 10.0 mi WNW 16.1 mph 25.3 mph N/A   Overcast
6:53 AM 36.0 °F 26.7 °F 26.1 °F 67% 30.06 in 10.0 mi West 15.0 mph - N/A   Overcast
7:53 AM 37.0 °F 27.4 °F 25.0 °F 62% 30.11 in 10.0 mi WNW 17.3 mph 25.3 mph N/A   Overcast
8:53 AM 37.9 °F 29.6 °F 25.0 °F 60% 30.13 in 10.0 mi WNW 13.8 mph 27.6 mph N/A   Scattered Clouds
9:53 AM 39.0 °F 29.0 °F 25.0 °F 57% 30.15 in 10.0 mi WNW 20.7 mph 26.5 mph N/A   Clear
10:53 AM 39.9 °F 30.8 °F 25.0 °F 55% 30.15 in 10.0 mi NW 18.4 mph 24.2 mph N/A   Partly Cloudy
11:53 AM 41.0 °F 33.9 °F 26.1 °F 55% 30.19 in 10.0 mi WNW 12.7 mph - N/A   Scattered Clouds
12:53 PM 42.1 °F 33.3 °F 25.0 °F 51% 30.19 in 10.0 mi WNW 19.6 mph 23.0 mph N/A   Clear
1:53 PM 42.1 °F 35.2 °F 25.0 °F 51% 30.19 in 10.0 mi WNW 12.7 mph 20.7 mph N/A   Clear
2:53 PM 42.1 °F 35.2 °F 25.0 °F 51% 30.20 in 10.0 mi WNW 12.7 mph - N/A   Clear
4:53 PM 37.9 °F 32.7 °F 25.0 °F 60% 30.27 in 10.0 mi WSW 6.9 mph - N/A   Clear
5:53 PM 36.0 °F 32.1 °F 25.0 °F 64% 30.32 in 10.0 mi WSW 4.6 mph - N/A   Clear
7:53 PM 33.1 °F 30.0 °F 25.0 °F 72% 30.33 in 10.0 mi West 3.5 mph - N/A   Clear
8:53 PM 33.1 °F - 25.0 °F 72% 30.33 in 10.0 mi Calm Calm - N/A   Clear
9:53 PM 33.1 °F - 26.1 °F 75% 30.33 in 10.0 mi Calm Calm - N/A   Clear
10:53 PM 32.0 °F - 26.1 °F 79% 30.34 in 9.0 mi Calm Calm - N/A   Clear
11:53 PM 30.9 °F - 26.1 °F 82% 30.33 in 8.0 mi Calm Calm - N/A   Clear